This is the latest recevied weather packets stored in our database for station/object KD4WLE. If no packets are shown the sender has not sent any weather packets the latest 10 day(s).
| Time | Temp. | Humidity | Pressure | Rain* | Wind** | Luminosity | Snow |
|---|---|---|---|---|---|---|---|
| 1777586149 | 31.67° C | 47% | 1009.2 hPa | 0 mm | - | 104 W/m² | - |
| 1777585847 | 32.78° C | 47% | 1009 hPa | 0 mm | - | 107 W/m² | - |
| 1777585547 | 32.78° C | 45% | 1009.2 hPa | 0 mm | - | 296 W/m² | - |
| 1777585243 | 33.89° C | 45% | 1009 hPa | 0 mm | - | 295 W/m² | - |
| 1777584938 | 33.33° C | 44% | 1009 hPa | 0 mm | - | 324 W/m² | - |
| 1777584636 | 33.33° C | 46% | 1008.9 hPa | 0 mm | - | 315 W/m² | - |
| 1777584332 | 32.22° C | 46% | 1009.2 hPa | 0 mm | - | 316 W/m² | - |
| 1777584028 | 32.78° C | 45% | 1009.2 hPa | 0 mm | - | 298 W/m² | - |
| 1777583723 | 32.78° C | 45% | 1009.2 hPa | 0 mm | - | 390 W/m² | - |
| 1777583422 | 33.33° C | 43% | 1009.4 hPa | 0 mm | - | 426 W/m² | - |
| 1777583121 | 33.33° C | 45% | 1009.2 hPa | 0 mm | - | 433 W/m² | - |
| 1777582817 | 33.33° C | 46% | 1009.3 hPa | 0 mm | - | 431 W/m² | - |
| 1777582515 | 32.78° C | 46% | 1009.4 hPa | 0 mm | - | 451 W/m² | - |
| 1777582210 | 33.33° C | 44% | 1009.4 hPa | 0 mm | - | 448 W/m² | - |
| 1777581907 | 32.78° C | 47% | 1009.6 hPa | 0 mm | - | 473 W/m² | - |
| 1777581603 | 32.78° C | 46% | 1009.6 hPa | 0 mm | - | 519 W/m² | - |
| 1777581297 | 32.22° C | 47% | 1009.4 hPa | 0 mm | - | 539 W/m² | - |
| 1777580991 | 31.67° C | 49% | 1009.6 hPa | 0 mm | - | 131 W/m² | - |
| 1777580686 | 31.67° C | 47% | 1009.5 hPa | 0 mm | - | 138 W/m² | - |
| 1777580382 | 32.78° C | 45% | 1009.4 hPa | 0 mm | - | 131 W/m² | - |
| 1777580078 | 32.78° C | 47% | 1009.6 hPa | 0 mm | - | 574 W/m² | - |
| 1777579775 | 32.22° C | 46% | 1009.8 hPa | 0 mm | - | 225 W/m² | - |
| 1777579472 | 31.11° C | 47% | 1009.8 hPa | 0 mm | - | 175 W/m² | - |
| 1777579168 | 31.67° C | 45% | 1009.8 hPa | 0 mm | - | 539 W/m² | - |
| 1777578863 | 32.78° C | 45% | 1009.8 hPa | 0 mm | - | 137 W/m² | - |
* Rain latest hour (hover to see other rain measurements)
** Current wind speed in m/s (hover to see current wind gust speed)